Weather History for Wautoma, WI

Change the Weather History Date:

Tuesday, June 10, 2014

  Actual Average (KPCZ) Record (KPCZ)
Temperature  
Mean Temperature 62 °F -  
Max Temperature 72 °F 75 °F 96 °F (1956)
Min Temperature 52 °F 51 °F 33 °F (1972)
Degree Days  
Heating Degree Days 3    
Growing Degree Days 12 (Base 50)    
Moisture  
Dew Point 51 °F    
Average Humidity 63    
Maximum Humidity 93    
Minimum Humidity 38    
Precipitation  
Precipitation 0.00 in - - ()
Sea Level Pressure  
Sea Level Pressure 29.95 in    
Wind  
Wind Speed 5 mph (NE)    
Max Wind Speed 12 mph    
Max Gust Speed -    
Visibility 10 miles    
Events      
Averages and records for this station are not official NWS values.
T = Trace of Precipitation, MM = Missing Value Source: NWS Daily Summary

Daily Weather History Graph

Daily Weather History Graph

Search for Another Location

Airport:

Trip Planner

Search our weather history database for the weather conditions in past years. The results will help you decide how hot, cold, wet, or windy it might be!

Date:

Astronomy

Jun. 10, 2014 Rise Set
Actual Time 5:14 AM CDT 8:39 PM CDT
Civil Twilight 4:37 AM CDT 9:15 PM CDT
Nautical Twilight 3:50 AM CDT 10:03 PM CDT
Astronomical Twilight 2:51 AM CDT 11:02 PM CDT
Moon 6:00 PM CDT (6/10) 3:25 AM CDT (6/10)
Length of Visible Light 16h 37m
Length of Day
15h 25m
Waxing Gibbous, 92% of the Moon is Illuminated
Jun 10
Waxing Gibbous
Jun 12
Full
Jun 19
Last Quarter
Jun 27
New
Jul 5
First Quarter

Hourly Weather History & Observations

Time (CDT) Temp. Dew Point Humidity Pressure Visibility Wind Dir Wind Speed Gust Speed Precip Events Conditions
12:56 AM 60.8 °F 53.6 °F 77% 30.00 in 10.0 mi Calm Calm - N/A   Clear
1:56 AM 55.9 °F 52.9 °F 89% 29.98 in 10.0 mi Calm Calm - N/A   Clear
2:56 AM 52.9 °F 50.9 °F 93% 29.98 in 10.0 mi Calm Calm - N/A   Clear
4:56 AM 54.0 °F 52.0 °F 93% 29.99 in 10.0 mi Calm Calm - N/A   Clear
5:56 AM 54.0 °F 50.9 °F 89% 29.98 in 10.0 mi NNE 4.6 mph - N/A   Clear
7:56 AM 59.0 °F 48.9 °F 69% 29.98 in 10.0 mi NE 6.9 mph - N/A   Clear
8:56 AM 63.9 °F 50.0 °F 61% 29.99 in 10.0 mi NE 10.4 mph - N/A   Clear
9:56 AM 66.2 °F 48.2 °F 52% 30.00 in 10.0 mi NE 10.4 mph - N/A   Clear
10:56 AM 68.9 °F 47.8 °F 47% 29.97 in 10.0 mi East 11.5 mph - N/A   Clear
11:56 AM 72.0 °F 45.0 °F 38% 29.96 in 10.0 mi ENE 10.4 mph - N/A   Clear
1:56 PM 72.0 °F 48.9 °F 44% 29.95 in 10.0 mi ENE 6.9 mph - N/A   Clear
2:56 PM 72.0 °F 48.9 °F 44% 29.95 in 10.0 mi NE 8.1 mph - N/A   Clear
3:56 PM 71.6 °F 51.8 °F 50% 29.95 in 10.0 mi NE 10.4 mph - N/A   Clear
4:56 PM 72.0 °F 52.9 °F 51% 29.93 in 10.0 mi ENE 9.2 mph - N/A   Clear
5:56 PM 70.9 °F 54.9 °F 57% 29.92 in 10.0 mi ENE 8.1 mph - N/A   Clear
6:56 PM 69.8 °F 53.6 °F 56% 29.93 in 10.0 mi NE 9.2 mph - N/A   Clear
7:56 PM 68.0 °F 54.0 °F 61% 29.91 in 10.0 mi NE 6.9 mph - N/A   Clear
8:56 PM 66.9 °F 52.9 °F 61% 29.90 in 10.0 mi NE 8.1 mph - N/A   Clear
9:56 PM 64.4 °F 51.8 °F 64% 29.92 in 10.0 mi NE 4.6 mph - N/A   Clear
10:56 PM 63.9 °F 52.0 °F 65% 29.89 in 10.0 mi NNE 4.6 mph - N/A   Clear
11:56 PM 63.0 °F 48.9 °F 60% 29.88 in 10.0 mi Calm Calm - N/A   Clear